星链-32130 (STARLINK-32130)

导读

STARLINK-32130是美国SpaceX星链互联网星座的卫星,于2024年8月20日发射,属于星链星座扩容任务的组成部分,用于为全球提供低延迟、高速率的卫星互联网服务,尤其覆盖地面网络难以触达的偏远区域,依托近地轨道部署,支撑全球通信互联与商业航天网络布局。

Basic Information
目录编号:
60585
目录名称:
STARLINK-32130
国际标识:
2024-150C
轨道中心:
EARTH
卫星名称:
星链-32130 (STARLINK-32130)
卫星全名:
星链-32130 (STARLINK-32130)
卫星状态:
在轨 (已飞行745 天)
发射日期:
2024-08-20 UTC
国别 :
美国 (US)
星等 :
--
Orbit Information
数据来源 国际轨道数据
星历时间: 2026-09-04T04:00:02+0800
6小时前
查看轨道信息
半长轴: 6840.915km
偏心率: 0.0001414
轨道倾角: 53.159°
近地点辐角 99.690°
升交点赤经 199.612°
平近点角 321.951°
近地点: 461.81km
远地点: 463.746km
周期: 93.849分钟
每日圈数: 15.343749
Detailed Information
卫星平台:
Starlink v2.0 mini
运营商:
太空探索技术公司
运营商所在国:
美国
制造商(研发单位):
太空探索技术公司
制造商所在国:
美国
使用方式:
暂无
Satellite Introduction
星链(Starlink)计划是由太空探索技术公司(SpaceX)提出的一个巨型低轨卫星互联网星座项目,计划在2019年至2024年间在太空搭建由约1.2万颗卫星组成的“星链”网络,其中1584颗将部署在地球上空550千米处的近地轨道,并从2020年开始工作。该卫星仍在工作。
2D Orbit Map
3D Orbit Map
Orbit Altitude Analysis Chart
Orbit Inclination Analysis Chart
Orbit Comprehensive Analysis Chart
View Comprehensive Chart
Conjunction Data List
Event ID Objects TCA Miss Dist (km) Collision Risk Probability Collision Risk Index (CRI) Action
CDM_260905-130806-058506-467921
2026-09-05T
13:08:54+0000
0.538 km
远距离
1.535528E-4 高风险 0.79
CDM_260905-140105-922006-058521
2026-09-05T
14:01:49+0000
0.880 km
远距离
3.60363E-5 中风险 0.66
CDM_260904-202306-058506-576122
2026-09-04T
20:23:14+0000
0.742 km
远距离
2.222064E-5 中风险 0.62
CDM_260905-091506-058506-852821
2026-09-05T
09:15:15+0000
1.197 km
极远距离
1.267523E-5 中风险 0.57
CDM_260904-083106-058506-295922
2026-09-04T
08:31:20+0000
1.270 km
极远距离
7.357675E-6 低风险 0.52
CDM_260904-224306-058506-576122
2026-09-04T
22:43:56+0000
1.110 km
极远距离
5.68254E-6 低风险 0.5
CDM_260905-095706-058506-609421
2026-09-05T
09:57:00+0000
1.518 km
极远距离
5.581065E-6 低风险 0.5
CDM_260905-025906-058506-467921
2026-09-05T
02:59:14+0000
1.562 km
极远距离
5.16475E-6 低风险 0.49
CDM_260905-135606-058506-851821
2026-09-05T
13:56:12+0000
1.731 km
极远距离
3.771682E-6 低风险 0.47
CDM_260904-153306-058506-295922
2026-09-04T
15:33:25+0000
1.685 km
极远距离
2.966689E-6 低风险 0.44